Location: Ottobeuren
(47.9410°N, 10.3007°E)
Time: 09:09:08
(UTC+01:00)

BlueWalker 3 - Pass Details

Date: 17 December 2025
Orbit: 451 x 463 km, 53.2° (Epoch: 18 January)

Event Time Altitude Azimuth Distance (km) Brightness Sun altitude
Rises 07:18:45 0° 186° (S) 2,450 5.7 -7.2°
Reaches altitude 10° 07:21:58 10° 154° (SSE) 1,587 5.4 -6.7°
Maximum altitude 07:23:24 12° 130° (SE) 1,468 5.9 -6.5°
Drops below altitude 10° 07:24:51 10° 106° (ESE) 1,595 6.1 -6.3°
Sets 07:28:06 0° 75° (ENE) 2,479 6.2 -5.8°
